Hamilton, OH

8:00 PM EDT on April 29, 2017 (GMT -0400)
Butler County Regional

Weather History for KHAO - April, 2014

Change the Weather History Date:

Sunday, April 27, 2014

  Actual Average (KLUK) Record (KLUK)
Temperature  
Mean Temperature 60 °F -  
Max Temperature 73 °F 70 °F 89 °F (1986)
Min Temperature 46 °F 46 °F 33 °F (2003)
Degree Days  
Heating Degree Days 6    
Growing Degree Days 10 (Base 50)    
Moisture  
Dew Point 42 °F    
Average Humidity 51    
Maximum Humidity 71    
Minimum Humidity 38    
Precipitation  
Precipitation 0.00 in - - ()
Sea Level Pressure  
Sea Level Pressure 29.96 in    
Wind  
Wind Speed 9 mph (ENE)    
Max Wind Speed 16 mph    
Max Gust Speed -    
Visibility 10 miles    
Events Rain    
Averages and records for this station are not official NWS values.
T = Trace of Precipitation, MM = Missing Value Source: NWS Daily Summary

Daily Weather History Graph

Daily Weather History Graph

Search for Another Location

Airport or City:

Trip Planner

Search our weather history database for the weather conditions in past years. The results will help you decide how hot, cold, wet, or windy it might be!

Date:

Astronomy

Apr. 27, 2014 Rise Set
Actual Time 6:44 AM EDT 8:27 PM EDT
Civil Twilight 6:15 AM EDT 8:56 PM EDT
Nautical Twilight 5:41 AM EDT 9:31 PM EDT
Astronomical Twilight 5:04 AM EDT 10:08 PM EDT
Moon 5:43 AM EDT (4/27) 7:01 PM EDT (4/27)
Length of Visible Light 14h 40m
Length of Day
13h 43m
Waning Crescent, 3% of the Moon is Illuminated
Apr 27
Waning Crescent
Apr 29
New
May 6
First Quarter
May 14
Full
May 21
Last Quarter

Hourly Weather History & Observations

Time (EDT) Temp. Windchill Dew Point Humidity Pressure Visibility Wind Dir Wind Speed Gust Speed Precip Events Conditions
12:53 AM 55.9 °F - 41.0 °F 57% 29.98 in 10.0 mi ENE 5.8 mph - N/A   Clear
1:53 AM 53.1 °F - 41.0 °F 64% 30.00 in 10.0 mi NE 5.8 mph - N/A   Clear
2:53 AM 52.0 °F - 39.9 °F 63% 29.99 in 10.0 mi ENE 5.8 mph - N/A   Clear
3:53 AM 50.0 °F - 39.0 °F 66% 29.99 in 10.0 mi ENE 8.1 mph - N/A   Clear
4:53 AM 48.9 °F - 37.0 °F 64% 30.01 in 10.0 mi ENE 5.8 mph - N/A   Partly Cloudy
5:53 AM 48.0 °F - 37.0 °F 66% 30.03 in 10.0 mi ENE 8.1 mph - N/A   Partly Cloudy
6:53 AM 46.0 °F 41.9 °F 37.0 °F 71% 30.04 in 10.0 mi East 8.1 mph - N/A   Clear
8:53 AM 50.0 °F - 37.9 °F 63% 30.07 in 10.0 mi East 11.5 mph - N/A   Clear
9:53 AM 55.0 °F - 37.9 °F 53% 30.06 in 10.0 mi ENE 12.7 mph - N/A   Clear
10:53 AM 60.1 °F - 39.0 °F 46% 30.05 in 10.0 mi East 11.5 mph - N/A   Clear
12:53 PM 66.9 °F - 43.0 °F 42% 29.97 in 10.0 mi ESE 13.8 mph - N/A   Clear
1:53 PM 69.1 °F - 45.0 °F 42% 29.96 in 10.0 mi East 13.8 mph - N/A   Clear
2:53 PM 72.0 °F - 46.9 °F 41% 29.94 in 10.0 mi ENE 16.1 mph - N/A   Clear
4:53 PM 73.9 °F - 46.9 °F 38% 29.90 in 10.0 mi East 15.0 mph - N/A   Clear
5:53 PM 73.0 °F - 46.0 °F 38% 29.89 in 10.0 mi East 15.0 mph - 0.00 in Rain Light Rain
6:53 PM 72.0 °F - 46.0 °F 40% 29.88 in 10.0 mi East 12.7 mph - 0.00 in Rain Light Rain
7:53 PM 70.0 °F - 45.0 °F 41% 29.88 in 10.0 mi ENE 10.4 mph - 0.00 in Rain Light Rain
8:53 PM 66.9 °F - 44.1 °F 44% 29.89 in 10.0 mi East 8.1 mph - 0.00 in Rain Light Rain
9:53 PM 64.0 °F - 42.1 °F 45% 29.90 in 10.0 mi ENE 8.1 mph - 0.00 in   Clear
10:53 PM 63.0 °F - 42.1 °F 46% 29.88 in 10.0 mi East 9.2 mph - N/A   Overcast
11:53 PM 61.0 °F - 41.0 °F 48% 29.86 in 10.0 mi East 13.8 mph - N/A   Clear